When you browse on this site, cookies collect data to enhance your experience and personalize the content and advertising you see.
Visit our Privacy Policy to learn more. By continuing to use the site, you agree to this use of cookies and data.
  • In Romania
  • List of Countries
  • For 7 days
  • Water Temperature
  • Satellite Maps
  • Weather Map
  • Weather Widgets
  • user-avatar
    Login

    Hourly Weather Aromatne

    Today, 17 July, Wednesday

    Time Temperature Precipitation Wind Pressure Humidity
    00:00 +19°C° 0 mm 1 mps 742 mmHg 77%
    01:00 +18°C° 0 mm 1 mps 742 mmHg 76%
    02:00 +18°C° 0 mm 1 mps 742 mmHg 74%
    03:00 +18°C° 0 mm 1 mps 742 mmHg 73%
    04:00 +19°C° 0 mm 1 mps 742 mmHg 72%
    05:00 +19°C° 0 mm 1 mps 742 mmHg 71%
    06:00 +21°C° 0 mm 1 mps 742 mmHg 64%
    07:00 +23°C° 0 mm 1 mps 742 mmHg 58%
    08:00 +25°C° 0 mm 1 mps 742 mmHg 52%
    09:00 +26°C° 0 mm 1 mps 742 mmHg 47%
    10:00 +27°C° 0 mm 2 mps 742 mmHg 43%
    11:00 +29°C° 0 mm 2 mps 742 mmHg 39%
    12:00 +28°C° 0 mm 2 mps 742 mmHg 41%
    13:00 +28°C° 0 mm 3 mps 742 mmHg 44%
    14:00 +27°C° 0 mm 4 mps 742 mmHg 46%
    15:00 +27°C° 0 mm 3 mps 742 mmHg 47%
    16:00 +27°C° 0 mm 3 mps 742 mmHg 48%
    17:00 +27°C° 0 mm 2 mps 742 mmHg 49%
    18:00 +25°C° 0 mm 2 mps 742 mmHg 56%
    19:00 +23°C° 0 mm 1 mps 741 mmHg 63%
    20:00 +21°C° 0 mm 1 mps 741 mmHg 70%
    21:00 +21°C° 0 mm 1 mps 741 mmHg 70%
    22:00 +20°C° 0 mm 1 mps 741 mmHg 71%
    23:00 +20°C° 0 mm 1 mps 742 mmHg 71%

    Tomorrow, 18 July, Thursday

    Time Temperature Precipitation Wind Pressure Humidity
    00:00 +20°C° 0 mm 1 mps 741 mmHg 72%
    01:00 +19°C° 0 mm 1 mps 741 mmHg 72%
    02:00 +19°C° 0 mm 1 mps 741 mmHg 73%
    03:00 +19°C° 0 mm 1 mps 741 mmHg 72%
    04:00 +19°C° 0 mm 1 mps 741 mmHg 71%
    05:00 +20°C° 0 mm 1 mps 741 mmHg 70%
    06:00 +21°C° 0 mm 2 mps 742 mmHg 62%
    07:00 +24°C° 0 mm 2 mps 742 mmHg 53%
    08:00 +27°C° 0 mm 2 mps 742 mmHg 45%
    09:00 +28°C° 0 mm 2 mps 743 mmHg 41%
    10:00 +29°C° 0 mm 2 mps 743 mmHg 38%
    11:00 +29°C° 0 mm 2 mps 743 mmHg 34%
    12:00 +29°C° 0 mm 3 mps 743 mmHg 36%
    13:00 +29°C° 0 mm 4 mps 743 mmHg 37%
    14:00 +29°C° 0 mm 4 mps 743 mmHg 39%
    15:00 +28°C° 0 mm 4 mps 744 mmHg 42%
    16:00 +27°C° 0 mm 4 mps 744 mmHg 46%
    17:00 +26°C° 0 mm 3 mps 744 mmHg 49%
    18:00 +25°C° 0 mm 3 mps 744 mmHg 53%
    19:00 +24°C° 0 mm 2 mps 744 mmHg 57%
    20:00 +23°C° 0 mm 2 mps 745 mmHg 61%
    21:00 +21°C° 0 mm 2 mps 745 mmHg 63%
    22:00 +22°C° 0 mm 1 mps 745 mmHg 64%
    23:00 +21°C° 0 mm 1 mps 746 mmHg 66%

    Day after tomorrow, 19 July, Friday

    Time Temperature Precipitation Wind Pressure Humidity
    00:00 +20°C° 0 mm 1 mps 746 mmHg 66%
    01:00 +20°C° 0 mm 1 mps 746 mmHg 67%
    02:00 +20°C° 0 mm 1 mps 746 mmHg 67%
    03:00 +20°C° 0 mm 1 mps 746 mmHg 67%
    04:00 +20°C° 0 mm 1 mps 746 mmHg 66%
    05:00 +20°C° 0 mm 1 mps 746 mmHg 66%
    06:00 +22°C° 0 mm 1 mps 747 mmHg 59%
    07:00 +24°C° 0 mm 1 mps 747 mmHg 51%
    08:00 +27°C° 0 mm 1 mps 747 mmHg 44%
    09:00 +28°C° 0 mm 2 mps 748 mmHg 41%
    10:00 +29°C° 0 mm 2 mps 748 mmHg 38%
    11:00 +30°C° 0 mm 2 mps 748 mmHg 35%
    12:00 +30°C° 0 mm 3 mps 748 mmHg 35%
    13:00 +30°C° 0 mm 3 mps 748 mmHg 34%
    14:00 +30°C° 0 mm 4 mps 748 mmHg 34%
    15:00 +29°C° 0 mm 4 mps 748 mmHg 36%
    16:00 +29°C° 0 mm 4 mps 748 mmHg 38%
    17:00 +28°C° 0 mm 4 mps 748 mmHg 40%
    18:00 +26°C° 0 mm 3 mps 748 mmHg 45%
    19:00 +25°C° 0 mm 3 mps 748 mmHg 50%
    20:00 +23°C° 0 mm 2 mps 748 mmHg 55%
    21:00 +21°C° 0 mm 2 mps 748 mmHg 55%
    22:00 +21°C° 0 mm 2 mps 749 mmHg 55%
    23:00 +21°C° 0 mm 1 mps 749 mmHg 55%

    20 July, Saturday

    Time Temperature Precipitation Wind Pressure Humidity
    00:00 +21°C° 0 mm 1 mps 749 mmHg 55%
    01:00 +21°C° 0 mm 1 mps 749 mmHg 55%
    02:00 +21°C° 0 mm 1 mps 748 mmHg 56%
    03:00 +21°C° 0 mm 1 mps 748 mmHg 56%
    04:00 +21°C° 0 mm 1 mps 748 mmHg 56%
    05:00 +21°C° 0 mm 1 mps 748 mmHg 57%
    06:00 +23°C° 0 mm 1 mps 749 mmHg 51%
    07:00 +26°C° 0 mm 1 mps 749 mmHg 45%
    08:00 +28°C° 0 mm 1 mps 749 mmHg 39%
    09:00 +29°C° 0 mm 2 mps 749 mmHg 36%
    10:00 +30°C° 0 mm 2 mps 749 mmHg 34%
    11:00 +31°C° 0 mm 2 mps 749 mmHg 31%
    12:00 +31°C° 0 mm 3 mps 749 mmHg 32%
    13:00 +31°C° 0 mm 3 mps 749 mmHg 34%
    14:00 +32°C° 0 mm 4 mps 749 mmHg 35%
    15:00 +30°C° 0 mm 4 mps 749 mmHg 38%
    16:00 +29°C° 0 mm 3 mps 749 mmHg 42%
    17:00 +28°C° 0 mm 3 mps 749 mmHg 45%
    18:00 +26°C° 0 mm 2 mps 749 mmHg 51%
    19:00 +24°C° 0 mm 1 mps 749 mmHg 57%
    20:00 +22°C° 0 mm 1 mps 749 mmHg 63%
    21:00 +22°C° 0 mm 1 mps 749 mmHg 62%
    22:00 +21°C° 0 mm 1 mps 749 mmHg 62%
    23:00 +21°C° 0 mm 1 mps 749 mmHg 61%

    21 July, Sunday

    Time Temperature Precipitation Wind Pressure Humidity
    00:00 +21°C° 0 mm 1 mps 749 mmHg 59%
    01:00 +20°C° 0 mm 1 mps 749 mmHg 58%
    02:00 +19°C° 0 mm 2 mps 748 mmHg 57%
    03:00 +19°C° 0 mm 2 mps 748 mmHg 57%
    04:00 +19°C° 0 mm 2 mps 748 mmHg 57%
    05:00 +19°C° 0 mm 2 mps 748 mmHg 57%
    06:00 +23°C° 0 mm 2 mps 748 mmHg 52%
    07:00 +25°C° 0 mm 3 mps 748 mmHg 46%
    08:00 +28°C° 0 mm 3 mps 748 mmHg 40%
    09:00 +29°C° 0 mm 4 mps 749 mmHg 36%
    10:00 +32°C° 0 mm 4 mps 749 mmHg 33%
    11:00 +33°C° 0 mm 4 mps 749 mmHg 29%
    12:00 +33°C° 0 mm 4 mps 749 mmHg 29%
    13:00 +33°C° 0 mm 4 mps 749 mmHg 29%
    14:00 +34°C° 0 mm 5 mps 748 mmHg 29%
    15:00 +33°C° 0 mm 4 mps 748 mmHg 30%
    16:00 +33°C° 0 mm 4 mps 748 mmHg 32%
    17:00 +31°C° 0 mm 3 mps 748 mmHg 34%
    18:00 +29°C° 0 mm 3 mps 748 mmHg 42%
    19:00 +27°C° 0 mm 2 mps 749 mmHg 49%
    20:00 +24°C° 0 mm 2 mps 749 mmHg 57%
    21:00 +24°C° 0 mm 1 mps 749 mmHg 57%
    22:00 +23°C° 0 mm 1 mps 749 mmHg 57%
    23:00 +23°C° 0 mm 1 mps 749 mmHg 57%

    22 July, Monday

    Time Temperature Precipitation Wind Pressure Humidity
    00:00 +22°C° 0 mm 1 mps 749 mmHg 57%
    01:00 +22°C° 0 mm 1 mps 748 mmHg 56%
    02:00 +22°C° 0 mm 1 mps 748 mmHg 56%
    03:00 +22°C° 0 mm 1 mps 748 mmHg 55%
    04:00 +22°C° 0 mm 1 mps 748 mmHg 55%
    05:00 +22°C° 0 mm 1 mps 748 mmHg 55%
    06:00 +24°C° 0 mm 1 mps 748 mmHg 50%
    07:00 +27°C° 0 mm 1 mps 748 mmHg 44%
    08:00 +29°C° 0 mm 1 mps 749 mmHg 39%
    09:00 +30°C° 0 mm 2 mps 749 mmHg 37%
    10:00 +31°C° 0 mm 2 mps 749 mmHg 35%
    11:00 +33°C° 0 mm 3 mps 749 mmHg 33%
    12:00 +33°C° 0 mm 3 mps 749 mmHg 35%
    13:00 +32°C° 0 mm 4 mps 748 mmHg 37%
    14:00 +32°C° 0 mm 5 mps 748 mmHg 40%
    15:00 +30°C° 0 mm 4 mps 748 mmHg 43%
    16:00 +29°C° 0 mm 4 mps 748 mmHg 47%
    17:00 +28°C° 0 mm 3 mps 747 mmHg 50%
    18:00 +27°C° 0 mm 3 mps 747 mmHg 58%
    19:00 +25°C° 0 mm 2 mps 747 mmHg 66%
    20:00 +23°C° 0 mm 1 mps 747 mmHg 73%
    21:00 +23°C° 0 mm 1 mps 747 mmHg 72%
    22:00 +22°C° 0 mm 1 mps 747 mmHg 71%
    23:00 +22°C° 0 mm 1 mps 746 mmHg 69%
    Show more